CW0699 Weather Reports


time (UTC)temp
F
wind
direction
speed
knots
gust
knots
rain 1hr
in
rain 24hr
in
rain mn
in
humidity
%
barometer
mb
20260506123959 65 174 0.0 0.9 0.00 0.00 0.00 81 1016.9
20260506123159 65 252 0.0 0.9 0.00 0.00 0.00 81 1016.7
20260506122358 65 200 0.0 0.9 0.00 0.00 0.00 81 1016.5
20260506121559 65 246 0.0 0.9 0.00 0.00 0.00 81 1016.5
20260506120759 65 271 0.0 0.9 0.00 0.00 0.00 81 1016.3
20260506120004 65 216 0.0 1.7 0.00 0.00 0.00 81 1016.3
20260506115200 64 240 0.0 0.9 0.00 0.00 0.00 81 1016.3
20260506114400 64 259 0.0 0.9 0.00 0.00 0.00 81 1016.2
20260506113600 63 262 0.0 0.9 0.00 0.00 0.00 82 1016.2
20260506112759 63 239 0.0 0.0 0.00 0.00 0.00 82 1016.0
20260506112000 63 239 0.0 0.0 0.00 0.00 0.00 82 1015.9
20260506111200 62 239 0.0 0.0 0.00 0.00 0.00 82 1016.1
20260506110359 62 239 0.0 0.0 0.00 0.00 0.00 82 1016.0
20260506105600 62 239 0.0 0.0 0.00 0.00 0.00 81 1016.0
20260506104759 62 240 0.0 0.0 0.00 0.00 0.00 81 1015.9
20260506104000 62 239 0.0 0.0 0.00 0.00 0.00 81 1015.7
20260506095959 61 139 0.0 0.0 0.00 0.00 0.00 81 1015.0
20260506095158 61 139 0.0 0.0 0.00 0.00 0.00 81 1015.0
20260506094358 61 138 0.0 0.0 0.00 0.00 0.00 81 1015.0
20260506093559 61 138 0.0 0.0 0.00 0.00 0.00 81 1015.1
20260506092758 61 139 0.0 0.0 0.00 0.00 0.00 81 1014.9
20260506091959 61 138 0.0 0.0 0.00 0.00 0.00 81 1014.8
20260506091158 61 135 0.0 0.0 0.00 0.00 0.00 81 1014.6
20260506085558 61 135 0.0 0.0 0.00 0.00 0.00 80 1014.7
20260506084758 61 135 0.0 0.0 0.00 0.00 0.00 79 1014.8
20260506084000 61 193 0.0 0.0 0.00 0.00 0.00 79 1014.8
20260506083158 61 193 0.0 0.0 0.00 0.00 0.00 78 1014.7
20260506082359 61 193 0.0 0.0 0.00 0.00 0.00 78 1014.7
20260506081559 60 193 0.0 0.0 0.00 0.00 0.00 78 1014.6
20260506080758 60 193 0.0 0.0 0.00 0.00 0.00 78 1014.9
20260506072759 60 193 0.0 0.0 0.00 0.00 0.00 76 1015.0
20260506071959 60 193 0.0 0.0 0.00 0.00 0.00 77 1015.1
20260506062400 60 193 0.0 0.0 0.00 0.00 0.00 73 1015.6
20260506061600 60 193 0.0 0.0 0.00 0.00 0.00 72 1015.5
20260506051159 61 193 0.0 0.0 0.00 0.00 0.00 67 1015.2
20260506044801 61 193 0.0 0.0 0.00 0.00 0.00 65 1015.4
20260506043201 61 195 0.0 0.0 0.00 0.00 0.00 64 1015.8
20260506042401 61 195 0.0 0.0 0.00 0.00 0.00 63 1015.8
20260506041602 61 195 0.0 0.0 0.00 0.00 0.00 64 1015.6
20260506040801 61 193 0.0 0.0 0.00 0.00 0.00 64 1015.4
20260506034400 61 193 0.0 0.0 0.00 0.00 0.00 62 1015.4
20260506033600 61 193 0.0 0.0 0.00 0.00 0.00 62 1015.7
20260506032800 61 193 0.0 0.0 0.00 0.00 0.00 61 1015.7
20260506032002 61 193 0.0 0.0 0.00 0.00 0.00 60 1015.6
20260506031200 62 193 0.0 0.0 0.00 0.00 0.00 60 1015.5
20260506030400 62 193 0.0 0.0 0.00 0.00 0.00 60 1015.6
20260506025601 62 193 0.0 0.0 0.00 0.00 0.00 59 1015.7
20260506024801 62 193 0.0 0.0 0.00 0.00 0.00 58 1015.6
20260506024003 63 193 0.0 0.0 0.00 0.00 0.00 56 1015.4
20260506021601 63 193 0.0 0.0 0.00 0.00 0.00 55 1015.5
20260506020802 63 193 0.0 0.0 0.00 0.00 0.00 54 1015.5
20260506015200 64 193 0.0 0.0 0.00 0.00 0.00 53 1015.3
20260506014359 64 193 0.0 0.0 0.00 0.00 0.00 51 1015.3
20260506013601 65 193 0.0 0.0 0.00 0.00 0.00 50 1015.3
20260506012800 65 193 0.0 0.0 0.00 0.00 0.00 50 1015.3
20260506012000 66 193 0.0 0.0 0.00 0.00 0.00 47 1015.4
20260506005600 69 193 0.0 0.0 0.00 0.00 0.00 41 1015.4
20260506004000 71 193 0.0 0.0 0.00 0.00 0.00 37 1015.4
20260506003200 72 193 0.0 0.9 0.00 0.00 0.00 35 1015.5
20260506002400 73 252 0.0 0.9 0.00 0.00 0.00 35 1015.7
20260506001600 73 252 0.0 0.0 0.00 0.00 0.00 35 1015.7
20260506000800 73 218 0.0 0.9 0.00 0.00 0.00 34 1015.5
20260506000004 74 211 0.0 1.7 0.00 0.00 0.00 33 1015.5
20260505234400 75 126 0.0 0.0 0.00 0.00 0.00 32 1015.4
20260505233600 76 124 0.0 0.9 0.00 0.00 0.00 30 1015.5
20260505232800 77 198 0.0 0.9 0.00 0.00 0.00 29 1015.5
20260505232000 79 197 0.0 3.5 0.00 0.00 0.00 27 1015.5
20260505231200 80 264 0.0 1.7 0.00 0.00 0.00 27 1015.4
20260505230400 80 150 0.0 2.6 0.00 0.00 0.00 26 1015.5
20260505225600 81 215 0.9 2.6 0.00 0.00 0.00 25 1015.2
20260505224801 81 176 0.0 1.7 0.00 0.00 0.00 25 1015.2
20260505224001 81 146 0.9 2.6 0.00 0.00 0.00 25 1015.1
20260505223200 81 208 0.9 2.6 0.00 0.00 0.00 25 1015.1
20260505222400 80 100 0.0 3.5 0.00 0.00 0.00 26 1015.2
20260505221601 80 128 0.0 2.6 0.00 0.00 0.00 25 1015.2
20260505220800 80 193 0.9 3.5 0.00 0.00 0.00 25 1015.1
20260505220003 80 134 0.9 2.6 0.00 0.00 0.00 24 1015.1
20260505215200 80 194 0.9 2.6 0.00 0.00 0.00 25 1015.0
20260505214401 80 236 0.9 4.3 0.00 0.00 0.00 25 1015.0
20260505213600 81 199 1.7 3.5 0.00 0.00 0.00 24 1015.2
20260505212800 81 135 0.9 3.5 0.00 0.00 0.00 26 1015.2
20260505211200 80 222 0.9 5.2 0.00 0.00 0.00 28 1015.3
20260505210400 80 126 1.7 5.2 0.00 0.00 0.00 26 1015.2
20260505205601 80 198 1.7 2.6 0.00 0.00 0.00 26 1015.5
20260505204800 80 200 0.0 4.3 0.00 0.00 0.00 28 1015.4
20260505204001 80 243 0.0 2.6 0.00 0.00 0.00 29 1015.4
20260505203200 80 100 0.9 4.3 0.00 0.00 0.00 27 1015.7
20260505202400 79 274 0.9 3.5 0.00 0.00 0.00 28 1015.7
20260505195201 79 4 0.9 4.3 0.00 0.00 0.00 29 1016.0
20260505194359 78 124 0.0 4.3 0.00 0.00 0.00 30 1016.1
20260505193600 78 283 0.9 5.2 0.00 0.00 0.00 29 1016.3
20260505192800 78 151 0.0 4.3 0.00 0.00 0.00 30 1016.3
20260505192001 78 122 0.9 4.3 0.00 0.00 0.00 29 1016.4
20260505191200 78 197 1.7 3.5 0.00 0.00 0.00 31 1016.4
20260505185559 78 219 0.9 2.6 0.00 0.00 0.00 32 1016.6
20260505184800 78 236 0.9 3.5 0.00 0.00 0.00 33 1016.7
20260505183200 78 204 0.0 3.5 0.00 0.00 0.00 35 1016.8
20260505181559 77 197 0.9 3.5 0.00 0.00 0.00 34 1017.1
20260505180800 76 334 0.9 3.5 0.00 0.00 0.00 35 1017.2
20260505175201 76 295 0.9 3.5 0.00 0.00 0.00 33 1017.5
20260505174401 76 194 0.9 4.3 0.00 0.00 0.00 37 1017.7
20260505173603 76 201 0.0 3.5 0.00 0.00 0.00 36 1017.9
20260505172759 75 135 0.9 4.3 0.00 0.00 0.00 37 1017.9
20260505172001 75 126 0.9 5.2 0.00 0.00 0.00 37 1017.8
20260505171200 75 155 1.7 5.2 0.00 0.00 0.00 37 1017.8
20260505170400 75 240 0.9 6.1 0.00 0.00 0.00 36 1017.9
20260505164800 75 214 0.9 5.2 0.00 0.00 0.00 37 1017.9
20260505164002 75 131 0.9 7.0 0.00 0.00 0.00 38 1017.9
20260505163159 75 240 0.9 3.5 0.00 0.00 0.00 39 1017.9
20260505162401 75 139 0.0 2.6 0.00 0.00 0.00 41 1017.9
20260505160800 75 146 0.9 2.6 0.00 0.00 0.00 42 1017.9
20260505152801 74 294 0.9 3.5 0.00 0.00 0.00 43 1018.6
20260505152001 73 264 0.9 2.6 0.00 0.00 0.00 47 1018.5
20260505151159 73 208 0.9 1.7 0.00 0.00 0.00 47 1018.3
20260505124758 53 132 0.0 0.0 0.00 0.00 0.00 72 1016.9